Flag for Germany Weather past 2 weeks in Erlangen, Bavaria, Germany

Now
28 °F

Passing clouds.


Feels Like: 22 °F
Forecast: 7 / 33 °F
Wind: 6 mph from Southeast

Location: Nuernberg

Current Time: Dec 27, 2014 at 8:32:00 AM

Latest Report: Dec 27, 2014 at 7:50 AM


Visibility: N/A

Pressure: 29.80 "Hg

Humidity: 100%

Dew point: 28 °F

Location of ErlangenLocation

Historic Weather in Erlangen — Graph

°F

Erlangen temperature yesterday

Maximum temperature yesterday: 37 °F (at 11:50 AM)
Minimum temperature yesterday: 23 °F (at 10:50 PM)
Average temperature yesterday: 32 °F

Past Weeks' High & Low Weather Summary

 TemperatureHumidityPressure
High54 °F (Dec 18, 9:20 PM)100% (Dec 14, 12:50 AM)30.45 "Hg (Dec 14, 12:50 AM)
Low23 °F (Dec 26, 10:50 PM)58% (Dec 13, 12:20 PM)29.71 "Hg (Dec 12, 3:50 PM)
Average42 °F87%30.07 "Hg
* Reported Dec 12 7:20 AM — Dec 27 7:20 AM, Erlangen, Weather by CustomWeather, © 2014

Note: Actual official high and low records may vary slightly from our data, if they occured in-between our weather recording intervals... More about our weather records

Advertising

Erlangen weather history for previous 24 hours

 ConditionsComfort  
Time TempWeatherWind HumidityBarometerVisibility
7:20 AM
Dec 27
28 °FPassing clouds.7 mph100%29.83 "HgN/A
6:50 AM28 °FPassing clouds.6 mph100%29.86 "HgN/A
6:20 AM28 °FPassing clouds.7 mph100%29.89 "HgN/A
5:50 AM28 °FPassing clouds.6 mph100%29.92 "HgN/A
5:20 AM27 °FPassing clouds.7 mph100%29.95 "HgN/A
4:20 AM27 °FPassing clouds.5 mph100%30.01 "HgN/A
3:50 AM27 °FPassing clouds.5 mph100%30.04 "HgN/A
3:20 AM27 °FPassing clouds.5 mph100%30.07 "HgN/A
2:50 AM28 °FPassing clouds.3 mph100%30.09 "Hg4 mi
2:20 AM28 °FPartly cloudy.No wind100%30.12 "Hg4 mi
1:50 AM28 °FPassing clouds.1 mph100%30.12 "Hg4 mi
1:20 AM27 °FPassing clouds.2 mph100%30.15 "Hg4 mi
12:50 AM27 °FPartly cloudy.5 mph100%30.15 "Hg5 mi
12:20 AM25 °FPassing clouds.5 mph100%30.18 "HgN/A
11:50 PM
Dec 26
25 °FPassing clouds.5 mph100%30.21 "Hg6 mi
11:20 PM23 °FFog.3 mph100%30.21 "Hg4 mi
10:50 PM23 °FFog.3 mph100%30.24 "Hg4 mi
10:20 PM25 °FFog.3 mph100%30.24 "Hg6 mi
9:50 PM27 °FClear.2 mph100%30.24 "Hg10 mi
9:20 PM27 °FFog.2 mph100%30.27 "HgN/A
8:50 PM27 °FFog.1 mph100%30.27 "Hg6 mi
8:20 PM28 °FFog.1 mph100%30.27 "HgN/A
7:50 PM27 °FFog.1 mph100%30.30 "HgN/A
7:20 PM28 °FFog.1 mph100%30.30 "HgN/A
6:50 PM30 °FFog.1 mph100%30.30 "HgN/A
6:20 PM30 °FPassing clouds.2 mph100%30.30 "HgN/A
5:20 PM30 °FPassing clouds.2 mph100%30.30 "HgN/A
4:50 PM30 °FPassing clouds.1 mph100%30.30 "HgN/A
4:20 PM32 °FSnow flurries. Scattered clouds.5 mph100%30.30 "Hg2 mi
3:50 PM32 °FScattered clouds.2 mph100%30.30 "HgN/A
3:20 PM32 °FScattered clouds.3 mph100%30.30 "HgN/A
2:50 PM34 °FSnow showers. Partly sunny.7 mph87%30.30 "Hg1 mi
2:20 PM36 °FScattered showers. Broken clouds.5 mph81%30.30 "HgN/A
1:50 PM36 °FSnow flurries. Broken clouds.7 mph81%30.30 "HgN/A
1:20 PM37 °FScattered showers. Broken clouds.9 mph81%30.30 "HgN/A
12:50 PM36 °FScattered showers. Broken clouds.12 mph81%30.33 "HgN/A
12:20 PM36 °FScattered clouds.12 mph81%30.33 "HgN/A
11:50 AM37 °FScattered clouds.8 mph75%30.33 "HgN/A
11:20 AM36 °FScattered clouds.10 mph87%30.33 "HgN/A
10:50 AM36 °FScattered clouds.8 mph87%30.36 "HgN/A
10:20 AM34 °FScattered clouds.8 mph93%30.36 "HgN/A
9:50 AM32 °FScattered clouds.5 mph93%30.33 "HgN/A
9:20 AM32 °FScattered clouds.5 mph93%30.33 "HgN/A
8:50 AM32 °FScattered clouds.3 mph93%30.33 "HgN/A
8:20 AM32 °FScattered clouds.5 mph93%30.33 "HgN/A
Weather by CustomWeather, © 2014

See weather overviewHow to use our weather pages